Weather History for Hickory, NC

Change the Weather History Date:

Sunday, March 10, 2013

  Actual Average Record
Temperature  
Mean Temperature 52 °F -  
Max Temperature 64 °F 59 °F 76 °F (1974)
Min Temperature 39 °F 36 °F 18 °F (1960)
Degree Days  
Heating Degree Days 14    
Growing Degree Days 2 (Base 50)    
Moisture  
Dew Point 32 °F    
Average Humidity 48    
Maximum Humidity 83    
Minimum Humidity 30    
Precipitation  
Precipitation 0.00 in - - ()
Sea Level Pressure  
Sea Level Pressure 30.19 in    
Wind  
Wind Speed 2 mph (East)    
Max Wind Speed 10 mph    
Max Gust Speed 18 mph    
Visibility 10 miles    
Events      
Averages and records for this station are not official NWS values.
T = Trace of Precipitation, MM = Missing Value Source: NWS Daily Summary

Daily Weather History Graph

Daily Weather History Graph

Search for Another Location

Airport:

Trip Planner

Search our weather history database for the weather conditions in past years. The results will help you decide how hot, cold, wet, or windy it might be!

Date:

Astronomy

Mar. 10, 2013 Rise Set
Actual Time 7:42 AM EDT 7:28 PM EDT
Civil Twilight 7:17 AM EDT 7:54 PM EDT
Nautical Twilight 6:47 AM EDT 8:24 PM EDT
Astronomical Twilight 6:18 AM EDT 8:53 PM EDT
Moon 6:40 AM EDT (3/10) 6:35 PM EDT (3/10)
Length of Visible Light 12h 36m
Length of Day
11h 45m
Waning Crescent, 2% of the Moon is Illuminated
Mar 10
Waning Crescent
Mar 11
New
Mar 19
First Quarter
Mar 27
Full
Apr 3
Last Quarter

Hourly Weather History & Observations

Time (EDT) Temp. Windchill Dew Point Humidity Pressure Visibility Wind Dir Wind Speed Gust Speed Precip Events Conditions
12:53 AM 48.0 °F - 30.0 °F 50% 30.22 in 10.0 mi Calm Calm - N/A   Overcast
1:53 AM 46.0 °F - 33.1 °F 61% 30.22 in 10.0 mi Calm Calm - N/A   Mostly Cloudy
3:53 AM 41.0 °F - 32.0 °F 70% 30.21 in 10.0 mi Calm Calm - N/A   Clear
4:53 AM 46.0 °F 44.8 °F 30.0 °F 54% 30.20 in 10.0 mi ENE 3.5 mph - N/A   Clear
5:53 AM 45.0 °F 43.5 °F 30.0 °F 56% 30.20 in 10.0 mi ENE 3.5 mph - N/A   Clear
6:53 AM 41.0 °F 39.0 °F 32.0 °F 70% 30.21 in 10.0 mi ENE 3.5 mph - N/A   Clear
8:53 AM 39.9 °F - 35.1 °F 83% 30.25 in 10.0 mi Calm Calm - N/A   Clear
9:53 AM 43.0 °F - 34.0 °F 71% 30.26 in 10.0 mi Calm Calm - N/A   Clear
10:53 AM 51.1 °F - 34.0 °F 52% 30.25 in 10.0 mi Calm Calm - N/A   Clear
11:53 AM 57.0 °F - 34.0 °F 42% 30.24 in 10.0 mi SSW 6.9 mph - N/A   Clear
12:53 PM 60.1 °F - 33.1 °F 36% 30.22 in 10.0 mi SW 10.4 mph 18.4 mph N/A   Clear
1:53 PM 62.1 °F - 33.1 °F 34% 30.19 in 10.0 mi Calm Calm - N/A   Clear
2:53 PM 64.0 °F - 33.1 °F 31% 30.16 in 10.0 mi Variable 3.5 mph - N/A   Clear
3:53 PM 64.0 °F - 32.0 °F 30% 30.15 in 10.0 mi Variable 6.9 mph - N/A   Clear
4:53 PM 64.9 °F - 33.1 °F 31% 30.14 in 10.0 mi Variable 3.5 mph - N/A   Clear
5:53 PM 63.0 °F - 32.0 °F 31% 30.13 in 10.0 mi Variable 5.8 mph - N/A   Clear
6:53 PM 62.1 °F - 30.9 °F 31% 30.13 in 10.0 mi Variable 3.5 mph - N/A   Clear
7:53 PM 57.9 °F - 32.0 °F 37% 30.16 in 10.0 mi Calm Calm - N/A   Clear
8:53 PM 55.0 °F - 33.1 °F 43% 30.16 in 10.0 mi Calm Calm - N/A   Clear
9:53 PM 55.0 °F - 32.0 °F 42% 30.16 in 10.0 mi Calm Calm - N/A   Clear
10:53 PM 52.0 °F - 32.0 °F 47% 30.17 in 10.0 mi Calm Calm - N/A   Clear
11:53 PM 53.1 °F - 32.0 °F 45% 30.14 in 10.0 mi Calm Calm - N/A   Clear
12:53 AM 48.0 °F - 33.1 °F 56% 30.14 in 9.0 mi Calm Calm - N/A   Clear